SHERINGHAM POINT (A current weather conditions

sailwx.info

Wind from 290 at 16 knots

Air temperature 11.0° C

Last reported at 2020-Jun-06 05:00 UTC.
Time now 2020-Jun-06 06:40 UTC

Location: N 48°23' W 123°55'.
View on Google Maps.

See reports from other nearby stations

  
Tides and Currents Weather Stations Pressure Air Temp Water Temp Dewpoint Dewpoint Depression Visibility Wind Speed Wind Dir Waves Ship Positions
date/time (UTC)wind fromknots sea level pressurealtimeterstation pressurevisibilityair tempwater tempwave heightnotes
2020-Jun-06 05:00 290 16 11.0
2020-Jun-06 04:00 290 17 12.0
2020-Jun-06 03:00 300 16 12.0
2020-Jun-06 02:00 300 19 12.0
2020-Jun-06 01:00 290 20 gusting 27 12.0
2020-Jun-06 00:00 290 23 12.0
2020-Jun-05 23:00 290 20 12.0
2020-Jun-05 22:00 290 16 12.0
2020-Jun-05 21:00 290 12 12.0
2020-Jun-05 20:00 280 7 11.0
2020-Jun-05 19:00 270 2 11.0
2020-Jun-05 18:00 270 4 11.0
2020-Jun-05 17:00 140 5 11.0
2020-Jun-05 16:00 080 5 11.0
2020-Jun-05 15:00 10.0
2020-Jun-05 14:00 290 1 9.0
2020-Jun-05 13:00 9.0
2020-Jun-05 12:00 090 1 9.0
2020-Jun-05 11:00 9.0
2020-Jun-05 10:00 270 1 9.0
2020-Jun-05 09:00 300 5 10.0
2020-Jun-05 08:00 290 9 10.0
2020-Jun-05 07:00 300 9 10.0
2020-Jun-05 06:00 290 10 10.0
2020-Jun-05 05:00 290 14 10.0
2020-Jun-05 04:00 290 19 11.0
2020-Jun-05 03:00 290 16 11.0
2020-Jun-05 02:00 290 18 11.0
2020-Jun-05 01:00 290 20 12.0
2020-Jun-05 00:00 290 16 11.0
2020-Jun-04 23:00 280 16 11.0
2020-Jun-04 22:00 290 17 11.0
2020-Jun-04 21:00 290 17 11.0
2020-Jun-04 20:00 290 12 13.0
2020-Jun-04 19:00 290 13 13.0
2020-Jun-04 18:00 290 12 12.0
2020-Jun-04 17:00 290 9 11.0
2020-Jun-04 16:00 290 9 10.0
2020-Jun-04 15:00 300 7 10.0
2020-Jun-04 14:00 260 12 10.0
2020-Jun-04 13:00 280 12 10.0
2020-Jun-04 11:00 280 14 10.0
2020-Jun-04 10:00 290 11 10.0
2020-Jun-04 09:00 290 6 10.0
2020-Jun-04 08:00 300 5 10.0
2020-Jun-04 07:00 290 7 10.0
2020-Jun-04 06:00 280 13 11.0